SL-8 R/B (21088 NORAD) Tracking and Keplerian Element Data

This shows tracking and keplerian element data for the satellite.

Feedback or suggestion? Click here.




ElementValue
Catalog21088
NameSL-8 R/B
Epoch Orbit37978
Epoch Day198.83393512
Epoch Year2018
RAAN86.1212
Inclination82.9425
Eccentricity0.0021305
Argument of Perigee294.5648
Mean Anonmoly135.7759
Mean Motion13.77084149
Decay Rate5.4E-07
L11 21088U 91006B 18198.83393512 .00000054 00000-0 39199-4 0 9990
L22 21088 82.9425 86.1212 0021305 294.5648 135.7759 13.77084149379785

Live tracking and technical data element details for SL-8 R/B (NORAD 21088). SL-8 R/B can be tracked NOW for your location showing map with azimuth and elevation plus other details from your city location.

Track the satellite on the map from your city or location and see movement details for azimuth, elevation, latitude, longitude, range, height, and movement on the map or in text.







IsCatalogInMostPopularTable: catalog: 21088, numindb: 21
Update: records affected: 1



GetName: 21088 SL-8 R/B

Hit Count: updated at: Thu, 19 Jul 2018 21:11:24 GMT